FICHTELBE Weather Reports


Display with metric or nautical units.
time (UTC)temp
F
wind
direction
speed
MPH
gust
MPH
rain 1hr
in
rain 24hr
in
rain mn
in
humidity
%
barometer
mb
20260903111639 57 260 20.0 0.0 0.00 0.00 0.00 71
20260903102040 55 270 23.0 0.0 0.00 0.00 0.00 71
20260903091639 57 260 20.0 26.0 0.00 0.00 0.00 67
20260903081638 52 260 17.0 25.0 0.00 0.00 0.00 81
20260903071840 50 270 17.0 0.0 0.00 0.00 0.00 93
20260903061639 48 260 17.0 0.0 0.00 0.00 0.00 93
20260903051638 46 270 12.0 0.0 0.00 0.00 0.00 99
20260903042041 46 290 12.0 0.0 0.00 0.00 0.00 99
20260903031639 48 290 12.0 0.0 0.00 0.00 0.00 99
20260903021638 48 290 10.0 0.0 0.00 0.00 0.00 99
20260903011839 48 280 12.0 0.0 0.00 0.00 0.00 93
20260903001639 48 280 13.0 0.0 0.00 0.00 0.00 93
20260902231639 48 290 13.0 0.0 0.00 0.00 0.00 93
20260902222039 48 300 10.0 0.0 0.00 0.00 0.00 93
20260902211639 50 290 16.0 0.0 0.00 0.00 0.00 87
20260902201640 50 290 17.0 0.0 0.00 0.00 0.00 87
20260902191840 52 280 16.0 0.0 0.00 0.00 0.00 81
20260902181639 54 280 22.0 0.0 0.00 0.00 0.00 76
20260902171839 57 270 15.0 0.0 0.00 0.00 0.00 76
20260902162040 59 280 14.0 0.0 0.00 0.00 0.00 67
20260902151638 63 280 14.0 0.0 0.00 0.00 0.00 59
20260902141840 64 270 14.0 22.0 0.00 0.00 0.00 59
20260902131839 61 270 16.0 0.0 0.00 0.00 0.00 63
20260902121639 61 270 10.0 0.0 0.00 0.00 0.00 67